Time,TemperatureF,DewpointF,PressureIn,WindDirection,WindDirectionDegrees,WindSpeedMPH,WindSpeedGustMPH,Humidity,HourlyPrecipIn,Conditions,Clouds,dailyrainin,SoftwareType,DateUTC
2018-04-22 00:09:00,51.0,-99.9,-100.00,ENE,58,15.0,19.0,-999,-99.99,,,-99.99,,2018-04-22 05:09:00,
2018-04-22 00:39:00,51.0,-99.9,-100.00,ENE,69,8.0,12.0,-999,-99.99,,,-99.99,,2018-04-22 05:39:00,
2018-04-22 01:10:00,51.0,-99.9,-100.00,ENE,62,9.0,10.0,-999,-99.99,,,-99.99,,2018-04-22 06:10:00,
2018-04-22 01:39:00,51.0,-99.9,-100.00,East,86,6.0,9.0,-999,-99.99,,,-99.99,,2018-04-22 06:39:00,
2018-04-22 02:10:00,49.0,-99.9,-100.00,NE,42,10.0,11.0,-999,-99.99,,,-99.99,,2018-04-22 07:10:00,
2018-04-22 02:39:00,49.0,-99.9,-100.00,NE,49,9.0,10.0,-999,-99.99,,,-99.99,,2018-04-22 07:39:00,
2018-04-22 03:09:00,49.0,-99.9,-100.00,NE,45,10.0,11.0,-999,-99.99,,,-99.99,,2018-04-22 08:09:00,
2018-04-22 03:39:00,48.0,-99.9,-100.00,North,10,7.0,8.0,-999,-99.99,,,-99.99,,2018-04-22 08:39:00,
2018-04-22 04:09:00,48.0,-99.9,-100.00,NNE,27,7.0,9.0,-999,-99.99,,,-99.99,,2018-04-22 09:09:00,
2018-04-22 04:39:00,48.0,-99.9,-100.00,NE,38,12.0,14.0,-999,-99.99,,,-99.99,,2018-04-22 09:39:00,
2018-04-22 05:09:00,48.0,-99.9,-100.00,NE,56,10.0,13.0,-999,-99.99,,,-99.99,,2018-04-22 10:09:00,
2018-04-22 05:38:00,48.0,-99.9,-100.00,NE,51,10.0,12.0,-999,-99.99,,,-99.99,,2018-04-22 10:38:00,
2018-04-22 06:09:00,48.0,-99.9,-100.00,NE,47,12.0,14.0,-999,-99.99,,,-99.99,,2018-04-22 11:09:00,
2018-04-22 06:39:00,48.0,-99.9,-100.00,NE,53,11.0,14.0,-999,-99.99,,,-99.99,,2018-04-22 11:39:00,
2018-04-22 07:09:00,48.0,-99.9,-100.00,NE,53,10.0,12.0,-999,-99.99,,,-99.99,,2018-04-22 12:09:00,
2018-04-22 07:39:00,47.0,-99.9,-100.00,NE,56,12.0,13.0,-999,-99.99,,,-99.99,,2018-04-22 12:39:00,
2018-04-22 08:10:00,48.0,-99.9,-100.00,ENE,57,13.0,16.0,-999,-99.99,,,-99.99,,2018-04-22 13:10:00,
2018-04-22 08:38:00,48.0,-99.9,-100.00,ENE,58,15.0,18.0,-999,-99.99,,,-99.99,,2018-04-22 13:38:00,
2018-04-22 09:10:00,49.0,-99.9,-100.00,ENE,64,12.0,14.0,-999,-99.99,,,-99.99,,2018-04-22 14:10:00,
2018-04-22 09:39:00,50.0,-99.9,-100.00,ENE,60,12.0,14.0,-999,-99.99,,,-99.99,,2018-04-22 14:39:00,
2018-04-22 10:09:00,51.0,-99.9,-100.00,NE,54,12.0,14.0,-999,-99.99,,,-99.99,,2018-04-22 15:09:00,
2018-04-22 10:39:00,53.0,-99.9,-100.00,NE,55,14.0,17.0,-999,-99.99,,,-99.99,,2018-04-22 15:39:00,
2018-04-22 11:09:00,53.0,-99.9,-100.00,ENE,60,13.0,15.0,-999,-99.99,,,-99.99,,2018-04-22 16:09:00,
2018-04-22 11:39:00,55.0,-99.9,-100.00,NE,52,15.0,19.0,-999,-99.99,,,-99.99,,2018-04-22 16:39:00,
2018-04-22 12:10:00,56.0,-99.9,-100.00,NE,56,14.0,16.0,-999,-99.99,,,-99.99,,2018-04-22 17:10:00,
2018-04-22 12:39:00,59.0,-99.9,-100.00,NE,56,12.0,15.0,-999,-99.99,,,-99.99,,2018-04-22 17:39:00,
2018-04-22 13:10:00,60.0,-99.9,-100.00,NE,47,9.0,11.0,-999,-99.99,,,-99.99,,2018-04-22 18:10:00,
2018-04-22 13:39:00,62.0,-99.9,-100.00,ENE,57,12.0,15.0,-999,-99.99,,,-99.99,,2018-04-22 18:39:00,
2018-04-22 14:10:00,62.0,-99.9,-100.00,ENE,62,12.0,16.0,-999,-99.99,,,-99.99,,2018-04-22 19:10:00,
2018-04-22 14:39:00,63.0,-99.9,-100.00,ENE,66,14.0,19.0,-999,-99.99,,,-99.99,,2018-04-22 19:39:00,
2018-04-22 15:10:00,65.0,-99.9,-100.00,ENE,67,13.0,19.0,-999,-99.99,,,-99.99,,2018-04-22 20:10:00,
2018-04-22 15:39:00,65.0,-99.9,-100.00,ENE,64,11.0,14.0,-999,-99.99,,,-99.99,,2018-04-22 20:39:00,
2018-04-22 16:10:00,64.0,-99.9,-100.00,ENE,60,12.0,15.0,-999,-99.99,,,-99.99,,2018-04-22 21:10:00,
2018-04-22 16:39:00,64.0,-99.9,-100.00,ENE,67,9.0,11.0,-999,-99.99,,,-99.99,,2018-04-22 21:39:00,
2018-04-22 17:09:00,64.0,-99.9,-100.00,ENE,61,11.0,16.0,-999,-99.99,,,-99.99,,2018-04-22 22:09:00,
2018-04-22 17:39:00,63.0,-99.9,-100.00,NE,56,14.0,20.0,-999,-99.99,,,-99.99,,2018-04-22 22:39:00,
2018-04-22 18:09:00,62.0,-99.9,-100.00,ENE,62,12.0,14.0,-999,-99.99,,,-99.99,,2018-04-22 23:09:00,
2018-04-22 19:10:00,62.0,-99.9,-100.00,ENE,66,6.0,8.0,-999,-99.99,,,-99.99,,2018-04-23 00:10:00,
2018-04-22 19:39:00,62.0,-99.9,-100.00,ENE,64,9.0,11.0,-999,-99.99,,,-99.99,,2018-04-23 00:39:00,
2018-04-22 20:09:00,61.0,-99.9,-100.00,ENE,62,8.0,10.0,-999,-99.99,,,-99.99,,2018-04-23 01:09:00,
2018-04-22 20:39:00,59.0,-99.9,-100.00,NNE,30,8.0,12.0,-999,-99.99,,,-99.99,,2018-04-23 01:39:00,
2018-04-22 21:10:00,60.0,-99.9,-100.00,NNE,24,12.0,17.0,-999,-99.99,,,-99.99,,2018-04-23 02:10:00,